Wind_Speed
22 22 23 23 24 25 26 26 26 27 28 28 29 29 30 30 31 31 31 31 32 32 32 32 32 32 31 31 30 29 28 27 25 22 19 15 13 12 11 11 11 10 9 9 9 10 10 10 10 10 10 10 10 10 10 10 10 10 10 10 8 5 4 7 7 4 2 1 1 2 5 10 14 18 21 23 24 25 25 24 22 20 17 14 10 8
23 23 23 24 25 26 27 27 27 28 28 29 29 29 30 30 31 31 32 32 32 33 33 33 32 32 31 30 29 28 26 25 23 20 16 13 11 11 10 10 9 8 7 7 8 9 10 10 10 10 10 10 10 10 11 10 10 10 10 10 8 5 3 6 7 6 4 4 3 3 4 6 10 15 18 21 22 23 23 21 19 16 12 9 7 8
23 23 24 25 26 26 27 28 28 28 29 29 29 29 30 30 31 31 32 33 33 33 33 33 32 31 30 29 27 25 24 23 21 18 14 12 11 11 10 8 6 5 6 7 8 9 9 10 10 10 10 10 10 11 11 10 10 10 10 10 8 7 6 8 9 8 7 6 4 3 3 4 6 8 9 11 12 14 14 13 12 10 8 8 9 10
22 23 24 26 27 27 28 28 29 29 29 29 29 30 30 30 31 31 32 33 33 33 33 32 31 30 28 27 25 23 22 21 19 15 12 11 11 11 9 6 4 4 6 7 8 9 9 10 10 10 10 10 10 10 11 11 11 11 10 9 9 8 9 10 11 11 10 9 8 8 7 6 6 6 5 5 4 5 6 7 7 8 10 11 11 12
22 23 25 26 27 27 28 28 28 29 29 29 30 30 30 30 31 31 32 32 32 32 31 30 28 27 26 25 23 22 21 19 17 13 11 11 11 10 8 6 5 5 6 6 7 8 9 9 9 9 9 9 10 10 10 11 11 10 9 8 8 9 10 11 12 12 12 11 11 11 11 11 11 11 11 11 11 10 10 11 11 12 13 14 14 14
22 24 25 27 27 28 28 28 29 29 29 29 29 30 30 30 30 30 30 30 30 29 28 27 26 25 24 23 22 21 19 18 15 13 12 12 11 9 8 8 8 7 6 6 7 8 8 8 8 8 8 8 9 9 9 9 9 9 9 8 8 9 10 11 12 12 12 12 13 13 14 15 15 15 15 15 16 16 16 16 16 16 17 16 16 16
22 24 27 28 28 28 28 29 29 29 29 29 29 29 29 29 29 29 28 28 26 25 24 24 24 23 22 21 20 19 17 15 13 12 12 12 11 9 9 11 11 9 8 7 7 8 7 7 8 8 8 8 8 7 7 7 7 8 8 8 8 9 10 11 12 12 12 13 13 14 15 16 17 18 18 18 17 18 18 18 18 18 18 17 17 17
23 26 28 28 28 28 28 28 28 28 28 28 28 28 28 28 27 26 25 24 23 22 21 21 22 22 21 19 17 16 14 11 9 10 11 11 10 9 10 12 12 11 9 9 8 8 7 7 8 9 9 9 8 7 6 6 7 7 7 8 8 9 10 11 12 13 14 14 14 15 16 17 18 19 19 19 18 18 18 18 18 18 18 18 17 17
24 27 28 28 28 28 28 28 28 27 27 26 26 26 25 25 25 24 22 21 20 19 18 18 19 19 18 16 14 12 9 7 7 8 9 10 10 9 10 12 13 12 11 11 10 8 7 8 9 10 10 9 7 6 6 7 7 8 8 8 8 9 10 11 13 14 15 16 16 17 17 18 19 19 19 19 18 18 18 18 18 18 18 17 17 16
25 27 27 27 27 26 26 26 26 26 25 24 24 24 24 23 23 22 20 18 16 15 15 15 15 15 15 14 12 9 6 5 6 7 8 9 9 9 11 13 13 13 13 13 12 10 9 9 10 10 9 8 7 7 7 8 9 9 9 9 9 9 9 11 13 14 16 17 17 18 19 19 20 20 19 19 18 18 18 18 18 18 18 18 17 17
25 26 26 26 26 25 25 24 24 24 23 23 23 23 23 22 21 19 17 15 13 11 10 11 12 12 11 11 10 8 5 6 7 7 8 8 9 10 12 14 14 14 14 14 13 12 11 11 11 10 9 8 7 7 8 10 10 11 11 11 11 10 10 9 10 12 15 16 17 18 19 20 20 20 19 19 18 18 18 19 19 19 18 18 17 17
25 25 25 24 24 23 22 22 22 22 22 21 20 19 19 19 18 15 13 12 10 9 8 8 9 10 10 10 9 7 5 6 7 8 9 9 10 11 13 14 15 15 15 15 14 13 12 12 11 10 8 7 7 8 9 11 11 11 12 12 13 13 12 10 9 10 11 14 16 18 19 19 20 19 19 18 18 18 18 18 19 19 18 18 18 17
25 24 23 22 22 21 20 20 20 20 19 18 16 15 14 14 13 12 11 10 10 10 10 9 8 8 9 8 7 6 5 6 7 8 9 9 9 10 12 14 14 15 15 14 14 13 12 12 11 10 8 8 8 9 10 11 12 12 12 12 13 13 13 12 11 11 11 13 14 16 17 18 18 18 18 18 17 17 18 18 18 18 18 18 18 17
24 23 22 21 20 20 19 18 18 17 17 15 14 13 13 12 12 11 11 11 11 11 10 8 7 7 8 7 6 5 6 6 6 8 9 9 9 9 10 11 12 13 13 13 13 12 11 11 10 9 9 9 10 11 12 12 13 12 12 12 12 12 13 12 12 12 13 13 14 15 16 17 17 17 17 17 17 17 17 18 18 18 18 18 18 17
23 21 20 19 19 18 17 17 16 15 14 13 12 11 11 11 11 12 11 11 10 9 7 7 7 7 7 7 6 6 6 6 7 8 9 10 10 10 10 11 12 13 13 13 13 12 10 10 9 9 10 11 12 12 13 13 13 13 13 13 13 13 13 13 13 13 13 14 14 15 15 16 16 16 16 16 17 17 17 17 18 18 18 18 18 17
20 19 18 18 17 16 15 14 13 12 12 11 10 9 9 9 10 11 10 10 8 7 5 6 7 7 8 8 7 7 7 7 7 8 8 9 10 10 11 11 12 12 13 13 12 10 9 9 10 11 12 12 13 13 13 13 13 13 13 13 13 13 13 13 13 13 13 13 14 14 15 15 15 16 16 16 16 16 17 17 17 18 18 18 18 17
18 17 16 15 14 13 13 12 11 10 9 7 7 7 8 9 9 9 9 8 7 6 6 6 7 6 6 7 7 7 7 7 8 8 8 8 8 9 9 10 11 11 11 11 11 10 9 10 11 12 13 13 14 14 14 14 14 14 14 14 14 14 14 13 13 13 13 13 13 14 14 15 15 15 15 16 16 16 16 17 17 17 17 18 18 18
15 15 14 12 11 10 9 9 8 7 6 6 6 7 8 8 8 8 8 7 7 7 7 7 7 7 7 7 7 7 6 7 8 8 8 8 8 8 8 9 10 10 11 11 10 10 10 11 12 13 14 14 14 14 14 14 15 15 15 15 15 14 14 14 14 13 13 13 14 14 14 15 15 15 16 16 16 16 16 17 17 17 17 18 18 18
13 12 11 9 9 9 8 8 8 7 7 7 8 8 8 8 8 8 7 7 7 7 7 7 7 7 8 8 8 7 7 7 8 8 8 8 9 10 10 10 11 11 11 11 11 11 12 12 13 14 14 14 15 15 15 15 16 16 16 16 15 15 15 14 14 14 14 14 14 14 14 15 15 15 16 16 16 17 17 17 17 17 18 18 18 18
11 10 9 8 8 8 8 8 8 8 8 9 9 10 10 9 8 8 8 8 7 8 8 8 8 8 9 9 8 7 7 6 7 8 8 8 9 11 11 12 12 13 13 13 13 13 13 14 14 15 15 15 15 16 16 16 17 17 17 17 16 16 15 15 15 14 14 14 14 14 14 15 15 15 16 16 17 17 17 17 18 18 18 18 18 18
9 8 8 8 8 8 8 8 8 8 9 9 10 10 10 10 9 9 9 8 8 8 9 9 9 9 8 8 7 7 6 5 6 7 7 8 9 10 11 12 13 13 14 15 14 14 15 15 15 16 16 16 16 17 17 17 18 18 18 18 17 17 16 16 15 14 14 14 14 14 14 15 15 16 16 16 17 17 18 18 18 18 18 18 18 18
8 7 7 7 7 7 8 7 7 8 8 9 10 10 10 10 10 10 9 9 8 8 9 9 9 9 8 7 7 6 5 5 5 6 6 7 8 9 10 11 12 13 14 14 15 15 15 15 15 16 16 17 17 17 18 18 18 18 18 18 18 18 17 16 15 14 14 14 14 14 14 15 15 16 16 16 17 17 18 18 18 18 18 18 18 18
7 7 7 7 7 7 7 7 8 8 8 9 10 10 10 10 10 10 9 9 8 8 8 9 9 8 8 7 7 6 5 5 5 6 7 7 8 9 9 10 11 12 13 13 14 14 14 14 15 15 16 16 17 17 18 18 18 18 18 18 18 18 18 17 16 15 15 14 14 14 14 15 15 16 16 16 17 17 17 18 18 18 18 18 18 18
7 7 7 8 8 7 8 8 9 9 9 9 9 9 9 9 9 9 9 9 9 9 9 9 9 9 8 8 7 7 6 6 6 6 7 7 8 8 9 10 10 11 12 12 13 13 13 14 14 15 15 16 17 17 18 18 18 18 18 18 18 18 18 18 18 17 16 16 15 15 15 15 15 16 16 16 17 17 17 17 18 18 18 19 19 18
8 8 8 9 9 9 9 9 10 10 10 9 9 9 9 9 9 9 9 9 9 9 9 9 9 9 9 8 8 7 8 7 7 7 8 8 8 9 9 10 11 11 12 12 13 13 13 14 14 15 15 16 17 17 18 18 19 19 19 18 18 18 18 18 18 18 18 18 17 17 16 16 16 16 17 17 17 17 17 17 18 18 19 19 19 19
9 8 9 9 10 10 10 10 10 9 9 9 9 9 9 9 9 9 9 9 9 9 9 9 9 9 9 8 8 7 8 8 8 8 8 9 9 9 10 10 11 11 12 13 13 14 14 15 15 16 16 17 17 18 18 19 19 19 19 19 18 18 18 18 18 18 19 19 19 19 18 18 17 17 17 17 17 17 17 18 18 18 19 20 20 20
9 8 8 9 9 9 9 9 9 8 8 8 8 8 8 8 8 8 8 8 9 9 9 9 9 9 9 8 8 8 8 8 8 8 8 9 9 10 10 10 11 11 12 13 14 15 15 16 16 16 17 17 18 18 19 19 20 20 20 20 19 19 19 18 18 18 19 19 20 20 20 19 19 18 18 18 18 18 18 18 18 19 19 20 20 20
8 7 7 8 8 8 8 7 7 7 7 7 7 7 7 7 7 7 8 9 10 10 9 9 10 9 9 8 8 8 8 8 8 9 9 9 10 10 10 10 10 11 13 14 14 15 15 16 16 16 17 17 18 19 19 19 20 20 20 20 20 20 20 19 19 19 19 19 20 20 20 20 20 19 19 19 19 19 19 19 19 19 20 20 20 20
7 7 7 7 7 7 6 6 6 7 7 7 7 7 7 7 7 8 9 10 10 9 9 10 10 10 10 9 9 9 9 9 9 9 9 10 10 11 11 10 11 11 12 13 14 14 15 15 16 16 17 17 18 19 19 20 20 20 21 21 21 21 21 20 20 20 20 20 20 20 20 20 20 20 20 20 20 19 19 19 20 20 20 20 20 20
7 7 7 7 6 6 6 6 6 7 7 7 7 7 7 7 7 8 9 9 9 9 9 10 10 10 10 10 10 9 9 10 10 10 10 10 10 11 11 11 12 12 12 13 13 14 15 15 16 16 16 16 17 18 19 20 20 20 21 21 21 21 21 21 21 20 20 20 20 21 21 21 21 21 21 21 20 20 20 20 20 20 21 20 20 19
7 7 6 6 6 6 6 6 6 7 7 7 7 7 7 7 7 7 8 9 9 9 9 9 10 10 10 10 10 9 9 10 11 11 10 10 11 12 13 13 13 13 13 13 13 14 15 15 15 15 14 15 15 16 17 18 18 19 19 20 20 20 20 20 20 20 20 20 20 21 21 21 21 21 21 21 21 21 21 20 20 21 21 20 20 19
7 6 6 6 6 5 5 5 6 6 7 7 7 7 7 7 7 7 8 8 8 9 9 9 9 10 10 10 10 10 10 11 12 12 11 11 12 13 14 14 14 14 15 15 15 14 13 15 16 15 14 13 14 15 15 16 17 17 18 18 18 18 19 19 19 19 20 20 20 20 20 21 21 21 21 21 21 21 21 21 21 21 21 20 20 19
6 6 6 6 6 6 6 6 6 6 7 7 7 7 7 7 8 8 8 8 9 9 9 9 9 10 10 10 10 11 11 11 12 13 12 12 12 13 14 15 15 15 16 16 16 16 16 18 18 17 16 15 15 15 15 16 16 17 17 18 18 18 18 19 19 19 19 20 20 20 20 20 21 21 21 21 21 21 21 21 21 20 21 20 20 19
7 7 7 7 7 7 7 7 7 7 7 7 7 7 7 8 8 8 8 9 9 9 9 9 9 9 10 10 10 10 11 11 12 12 12 12 12 13 14 15 15 15 16 16 17 18 18 19 19 19 18 17 17 16 16 16 17 18 18 18 18 18 19 19 20 20 20 20 20 20 20 21 21 21 21 21 21 21 21 21 20 20 20 20 19 18
8 8 8 8 8 8 8 8 7 7 7 7 7 7 8 8 8 8 8 8 9 9 9 9 9 10 10 10 10 10 10 11 12 12 12 12 12 13 14 14 15 15 15 16 17 18 18 18 19 19 19 19 18 17 16 16 17 17 18 18 19 19 20 20 20 21 21 21 21 21 21 21 22 22 22 22 22 22 21 21 20 20 19 19 19 18
9 9 9 9 9 8 8 8 8 8 7 7 8 8 8 8 8 8 8 8 9 9 9 9 10 10 10 10 11 11 11 12 12 12 12 12 12 12 13 14 15 15 15 16 17 17 18 18 19 19 19 19 18 17 17 16 16 17 17 18 18 19 19 20 20 21 21 21 21 22 22 22 22 22 22 22 22 22 21 21 20 20 19 19 19 18
10 9 9 9 9 8 8 9 9 8 8 8 8 8 8 8 8 8 9 9 9 9 9 10 10 10 10 11 11 11 12 12 13 13 12 12 12 12 12 13 14 15 15 15 16 17 17 18 18 18 18 18 18 17 17 16 16 16 16 16 17 17 18 19 19 20 20 21 21 21 21 22 22 22 22 22 21 21 21 20 19 19 18 18 18 18
10 10 9 9 9 8 8 9 9 9 9 8 8 9 9 9 9 9 9 9 10 10 10 10 10 10 10 11 11 11 12 12 12 12 12 12 12 12 12 13 14 14 14 15 15 16 17 17 17 18 18 17 17 17 17 16 16 15 14 15 15 16 16 17 18 19 19 19 20 20 20 20 21 21 20 20 20 20 20 19 18 18 17 17 17 17
10 10 9 9 9 8 8 8 9 9 9 9 9 10 10 10 10 10 10 10 10 10 10 10 10 11 11 11 11 11 12 12 12 12 12 12 13 12 12 13 13 14 14 14 15 15 16 16 17 17 17 17 17 16 16 16 15 14 14 13 14 14 15 16 17 17 17 18 18 18 18 19 19 19 19 19 19 19 18 17 17 16 16 16 16 16
10 10 10 9 9 9 9 9 9 10 10 10 10 11 11 11 11 11 11 10 10 11 11 11 11 11 11 12 12 12 12 12 12 12 13 13 13 13 13 13 13 13 14 14 14 15 15 15 16 16 17 17 16 16 15 15 14 13 13 13 12 12 13 14 15 16 16 16 16 16 17 17 17 17 17 17 17 17 17 16 16 15 15 15 15 15
11 10 10 10 10 10 9 10 10 10 10 11 11 11 11 10 10 10 10 10 11 11 11 11 11 11 11 12 12 12 13 12 13 13 13 13 13 13 13 13 13 14 14 14 14 14 14 15 15 15 16 16 16 16 15 13 12 12 13 12 12 11 12 12 13 14 14 15 15 15 16 16 16 16 16 16 16 16 16 15 15 15 15 15 15 15
11 10 10 11 11 11 10 10 10 11 11 11 11 11 11 10 10 10 10 10 10 11 11 11 11 11 11 11 12 13 13 13 13 13 13 13 13 13 13 13 14 14 14 14 14 14 14 14 14 15 15 15 15 15 13 12 11 11 12 12 12 12 11 11 12 13 13 14 14 15 15 15 15 15 16 15 15 15 15 15 15 15 15 15 15 15
11 11 12 12 12 12 11 11 11 11 11 11 11 11 11 11 10 10 10 10 11 11 11 11 11 10 11 11 12 13 13 13 13 13 14 14 14 14 14 14 14 14 14 14 14 14 14 14 14 14 14 15 15 14 13 11 10 10 11 12 13 12 11 10 10 11 12 13 14 14 15 15 15 15 16 15 15 15 15 15 15 15 15 14 14 14
13 13 13 13 13 12 11 11 11 11 11 11 11 11 11 11 10 10 10 10 11 12 12 11 11 11 11 11 12 12 13 14 14 14 14 14 14 14 14 14 14 14 14 14 14 14 14 14 14 14 14 14 14 13 12 11 10 10 10 12 12 12 12 11 10 11 12 13 13 14 15 15 16 16 15 15 15 15 15 15 15 15 15 14 14 14
14 14 14 13 13 12 11 11 11 11 11 11 11 11 10 10 10 10 10 10 11 11 12 11 11 11 11 11 11 12 13 14 14 15 15 14 14 14 14 14 15 15 14 14 14 14 14 13 13 14 14 14 13 13 12 11 10 10 11 12 12 13 13 12 11 11 12 12 13 14 15 16 16 15 15 14 14 14 15 15 15 14 14 14 14 14
15 14 14 13 12 12 11 11 11 10 10 10 10 10 10 10 10 10 10 11 11 12 12 12 11 11 11 11 11 12 13 14 15 15 15 15 15 15 15 15 15 15 15 15 15 14 14 14 14 14 14 13 13 12 11 11 11 11 11 12 12 13 12 12 11 12 12 13 13 14 15 15 15 15 15 14 14 14 14 15 15 14 14 14 14 14
14 14 13 13 12 12 12 11 11 10 10 9 9 9 9 9 10 10 10 11 12 12 12 12 12 12 12 11 12 12 12 13 14 15 15 15 15 15 15 15 15 15 15 15 15 15 15 14 14 14 14 13 12 11 11 11 12 12 12 12 12 12 12 12 12 12 13 13 13 14 15 15 15 15 15 14 14 14 14 14 14 14 14 14 14 14
15 14 14 13 13 13 12 12 11 10 10 9 9 9 9 10 10 10 11 11 12 12 12 12 12 12 12 12 12 12 12 13 13 14 15 15 15 15 15 15 15 15 15 15 15 15 15 14 14 14 13 13 13 12 11 11 12 12 12 12 12 12 12 12 12 13 13 13 13 13 14 14 14 14 14 14 14 14 13 14 14 14 14 14 14 14
15 15 15 14 14 14 14 13 12 11 10 10 9 9 9 10 10 11 11 11 12 12 12 12 12 12 12 13 13 13 12 12 12 13 13 14 14 14 14 14 14 14 14 15 15 15 15 14 14 13 13 13 13 12 12 12 12 12 13 13 12 12 12 12 12 13 13 13 13 13 13 14 14 14 14 14 14 13 13 13 13 13 14 14 14 14
17 16 16 16 16 16 15 14 13 12 11 10 10 10 11 11 11 11 11 11 12 12 12 13 13 13 12 13 13 13 12 12 12 12 12 12 12 12 13 13 13 13 14 14 14 14 14 13 13 13 13 13 12 12 12 12 12 12 12 12 12 12 11 11 12 12 12 13 13 13 13 13 13 13 13 14 13 13 12 12 12 12 13 14 15 15
18 18 17 17 17 17 16 15 14 13 12 11 11 12 12 12 12 11 11 11 11 11 12 12 13 12 12 12 12 12 12 11 11 12 12 11 11 11 12 12 13 13 13 13 14 14 13 12 11 12 13 13 13 12 11 11 11 11 11 12 12 11 11 11 11 11 11 12 12 12 12 12 12 13 13 13 13 12 11 11 11 12 13 14 15 16
Wind_Direction
253 256 260 263 265 267 269 270 272 273 275 278 280 281 283 285 286 287 288 289 289 289 290 291 291 292 293 294 295 296 296 296 295 293 289 282 275 271 272 273 274 274 273 272 271 272 273 275 278 281 285 289 292 295 296 295 292 289 287 285 284 291 308 296 288 273 212 182 196 214 205 197 192 188 187 187 188 192 196 198 198 197 197 200 211 236
251 256 261 265 268 270 272 274 275 276 277 279 281 283 285 286 287 288 288 289 289 289 290 290 291 292 293 294 294 294 294 294 293 291 287 280 272 269 269 270 271 270 266 266 267 270 272 274 276 279 283 287 290 290 288 285 283 280 279 277 273 262 250 266 266 251 210 179 147 128 143 167 176 179 179 180 183 186 189 191 192 193 198 213 241 269
253 259 263 267 270 271 273 275 277 278 279 280 282 283 284 285 286 287 287 288 288 289 289 290 291 292 292 292 292 292 291 291 289 287 284 278 273 270 269 269 268 264 260 260 263 267 270 272 273 275 277 279 280 280 278 277 277 277 274 270 264 250 232 242 249 247 233 219 206 189 167 158 157 159 163 165 169 174 177 183 191 203 225 250 270 282
259 264 267 270 272 273 274 275 277 278 279 280 281 283 284 284 285 285 286 287 287 288 289 290 290 290 290 290 290 290 289 287 285 281 275 272 270 271 274 274 272 267 264 263 265 269 272 273 273 272 271 271 270 270 271 274 277 277 273 266 260 252 244 245 248 248 243 239 239 238 235 227 219 212 209 208 205 201 202 214 228 246 261 272 281 288
265 268 270 272 273 274 274 275 276 277 278 279 280 281 282 283 284 285 285 286 286 287 288 289 289 289 288 288 288 288 286 284 278 270 261 259 260 263 267 266 264 262 262 263 266 270 273 276 276 274 269 264 260 261 266 273 279 280 277 271 265 261 259 258 256 255 251 248 248 250 252 253 251 251 252 255 260 263 264 264 267 272 277 282 287 291
267 270 272 273 273 273 274 274 274 275 277 278 279 281 281 282 283 284 284 285 286 286 287 287 287 286 286 286 286 285 283 279 271 258 249 250 252 252 248 247 249 252 255 259 262 267 271 276 278 274 266 257 252 252 259 269 276 279 279 278 276 273 271 269 267 265 261 258 257 258 260 262 263 265 266 268 271 273 275 276 279 282 284 287 288 290
266 269 271 272 272 272 272 272 273 274 275 276 278 280 281 281 282 282 283 284 284 285 285 285 284 284 284 284 284 282 280 274 262 249 243 245 244 240 234 237 242 247 253 256 258 261 267 273 274 269 260 250 244 245 252 262 268 273 276 279 279 279 277 276 275 273 271 269 266 265 265 266 267 269 272 274 277 279 280 281 283 285 287 287 288 288
264 267 269 269 269 269 270 270 272 273 274 275 276 277 278 279 280 280 281 282 283 283 284 283 283 283 284 284 284 281 277 267 252 240 239 239 234 228 227 233 240 247 255 256 255 257 263 270 270 263 252 243 239 243 251 261 268 274 278 280 280 278 275 273 272 272 272 272 271 270 269 268 268 269 271 275 278 280 282 283 285 286 288 288 287 286
263 265 266 266 266 266 267 268 270 272 273 273 273 274 274 275 276 276 277 279 280 281 281 280 281 283 285 287 286 283 275 263 246 236 234 230 225 221 223 230 238 246 253 254 253 254 262 267 265 256 245 238 238 246 257 267 275 282 287 289 287 280 273 266 262 261 263 265 268 269 268 268 269 270 272 274 277 279 280 282 283 285 288 288 288 286
263 264 265 264 264 264 265 265 267 269 270 270 270 271 272 272 273 275 276 276 277 277 277 277 280 284 289 290 290 283 261 245 243 239 229 223 219 219 223 229 235 242 248 249 250 253 260 263 258 249 239 236 240 252 262 270 278 286 293 297 296 289 278 265 256 252 252 256 260 264 266 268 269 271 273 275 276 277 278 280 282 284 287 288 288 286
264 264 263 262 263 263 263 263 263 265 267 268 270 272 273 275 276 277 277 276 272 269 269 273 279 285 291 292 291 281 239 219 224 229 224 220 218 219 223 228 233 238 243 245 247 252 257 258 252 244 238 239 247 259 266 272 279 287 295 299 299 297 291 278 263 253 250 252 256 260 263 266 269 270 271 273 274 275 276 278 281 283 286 287 286 285
264 262 261 260 260 260 261 261 262 263 265 267 270 273 276 279 281 280 277 272 266 260 257 264 271 277 281 284 288 284 255 229 222 222 222 223 221 219 222 225 229 233 237 241 244 249 253 254 249 245 244 249 258 267 272 276 282 288 295 298 300 301 302 298 288 273 263 259 259 261 263 265 267 268 268 269 270 272 274 277 279 282 283 284 283 283
262 259 258 258 258 258 258 259 261 263 266 269 270 271 272 277 280 279 273 268 265 264 262 261 262 267 271 278 285 287 274 250 232 224 224 229 226 220 219 222 225 229 233 238 242 246 250 250 249 249 254 262 270 274 277 280 283 288 292 295 298 301 304 306 303 294 284 274 268 265 264 264 264 265 265 266 267 269 272 275 277 279 280 280 280 280
258 257 256 256 256 257 258 259 262 266 270 271 272 271 271 271 271 270 269 269 272 272 269 263 261 264 268 269 273 277 274 260 242 230 228 232 233 229 225 225 228 233 239 244 249 251 248 244 244 250 260 270 275 277 279 281 284 287 289 292 295 298 301 302 300 295 288 281 274 268 265 263 262 262 263 264 266 268 270 273 275 277 277 278 277 278
257 256 255 255 255 257 260 263 267 270 271 271 270 267 265 264 264 267 270 273 275 274 268 262 263 265 266 262 258 257 262 258 246 236 233 234 236 236 236 236 238 243 249 253 256 254 244 237 240 252 264 272 276 277 279 281 283 286 288 290 292 295 296 296 295 291 286 281 275 271 267 264 263 263 263 264 265 267 269 271 273 274 275 275 276 276
258 257 257 257 259 261 264 268 271 272 271 269 267 264 264 264 267 271 274 274 273 269 265 269 272 271 266 261 253 249 254 254 249 241 237 236 236 236 237 239 241 244 249 252 253 251 244 242 247 257 266 272 274 276 278 280 282 284 286 288 291 292 294 294 293 290 287 282 278 274 270 268 266 266 266 266 266 266 267 268 270 271 272 274 275 276
259 259 260 260 260 262 266 271 273 271 269 266 264 264 265 267 271 275 277 275 271 267 267 268 270 270 269 269 262 254 250 252 251 247 242 240 238 236 237 238 240 242 243 246 248 248 248 253 258 262 267 270 272 274 276 278 280 282 284 286 289 291 292 293 292 290 287 283 279 275 273 271 269 268 268 267 267 266 266 267 268 270 271 273 274 276
258 259 259 258 257 258 262 265 265 263 259 257 258 260 263 266 269 271 271 270 268 268 271 269 267 268 270 270 270 266 255 255 255 252 247 243 241 241 241 241 243 244 245 247 248 250 253 258 261 264 267 269 271 272 274 276 278 280 282 284 286 288 290 291 290 289 286 283 278 275 272 271 269 268 268 267 267 267 267 267 268 270 271 273 275 277
254 254 252 250 250 251 253 253 251 249 248 250 252 254 256 260 263 264 264 264 266 268 271 270 267 266 268 270 271 270 263 258 255 254 250 244 239 239 243 243 244 247 250 252 253 255 257 260 262 264 266 268 270 271 273 275 276 278 280 282 284 285 287 287 287 286 284 281 278 275 272 270 269 268 268 267 268 268 268 268 270 271 273 274 276 278
246 244 240 241 242 245 246 244 241 238 241 243 246 249 254 256 258 261 263 263 265 268 270 270 269 269 270 273 274 273 268 259 253 250 250 246 240 237 240 241 244 248 252 254 256 258 260 261 262 263 265 267 268 270 271 273 275 277 279 280 282 282 283 283 283 283 282 280 278 275 273 271 270 268 268 268 268 269 269 270 271 272 273 275 276 278
236 235 237 241 244 244 244 243 238 235 238 240 244 249 254 256 256 256 258 260 264 267 269 270 271 273 276 281 281 277 268 260 251 246 246 246 243 240 240 241 244 246 250 253 255 257 259 260 261 262 264 265 267 268 270 272 274 276 279 280 281 282 282 281 281 281 280 279 277 275 274 272 271 270 269 269 270 270 271 271 272 273 274 275 277 279
233 235 242 246 247 246 246 246 244 241 240 240 245 250 253 255 254 253 253 254 257 261 264 268 271 273 276 278 277 271 264 258 252 247 245 244 242 242 243 244 246 247 248 251 253 255 257 258 260 261 263 265 267 269 271 273 275 278 280 282 283 284 284 283 283 281 280 278 277 276 274 273 271 270 270 270 270 271 272 273 274 275 276 277 279 280
240 244 249 249 248 247 246 246 244 242 239 241 244 248 249 251 251 251 252 253 254 257 262 268 273 276 277 275 273 267 259 252 250 249 247 242 241 243 245 246 248 249 249 250 252 253 255 256 258 260 262 264 267 269 272 274 276 278 281 283 284 286 286 287 286 285 283 281 279 277 276 274 273 272 271 271 271 271 273 274 275 277 278 280 281 283
245 248 248 247 245 244 243 244 245 246 246 247 248 250 250 249 249 250 251 254 256 258 263 270 275 277 277 275 272 266 260 252 249 249 249 245 243 243 246 247 248 250 252 252 252 252 253 254 256 259 261 264 266 269 271 273 275 277 278 280 281 284 285 287 288 288 287 285 283 280 279 277 276 274 273 273 272 273 274 275 277 279 280 282 284 286
240 243 244 244 244 244 244 245 246 248 249 250 250 250 248 247 248 250 254 258 260 262 266 270 273 274 276 276 271 266 263 257 253 251 251 250 247 244 246 246 247 249 251 252 252 253 252 253 254 256 258 261 263 266 269 271 273 274 275 276 277 279 281 283 285 286 287 286 285 283 281 279 278 277 276 275 274 274 275 276 278 280 282 284 286 288
235 238 240 242 243 243 243 244 245 246 248 249 248 248 246 245 246 250 255 259 262 264 265 266 268 270 274 276 276 271 266 262 258 255 254 255 252 248 247 247 246 247 249 251 252 253 253 253 253 255 257 259 261 263 265 268 270 271 273 274 275 276 277 278 279 281 283 283 283 282 281 280 279 278 277 276 275 275 276 277 279 281 283 285 287 288
236 240 243 243 243 243 243 243 244 246 248 249 250 250 250 250 252 256 260 261 261 262 261 262 265 268 271 274 275 273 268 266 263 261 259 259 258 255 252 249 248 248 248 249 250 251 252 253 253 254 256 258 259 261 263 265 267 269 271 272 273 274 274 275 275 275 276 277 278 279 279 278 278 277 276 276 275 276 276 278 280 282 284 285 287 288
238 241 244 246 246 245 246 246 248 251 253 255 255 255 256 257 259 259 260 261 262 262 263 263 265 268 271 273 274 273 272 271 269 267 267 265 264 264 262 257 252 251 251 250 251 252 253 254 254 254 255 256 258 259 261 262 264 266 267 269 270 271 271 272 272 271 271 271 271 272 273 274 275 275 275 275 275 275 276 278 280 282 284 285 287 288
237 239 241 244 246 248 250 253 257 260 262 262 263 264 264 264 262 260 261 263 265 266 266 266 267 269 271 273 274 275 275 274 272 271 272 270 269 270 269 265 260 257 257 256 257 257 257 257 257 257 256 256 257 258 260 261 262 263 264 265 266 267 267 268 268 267 267 266 265 265 266 268 270 272 273 273 274 275 276 278 280 282 283 285 286 287
236 237 238 241 243 247 252 259 264 268 270 270 271 271 270 268 265 263 264 265 267 268 268 268 270 271 272 274 276 276 274 273 272 272 271 269 269 270 271 269 266 265 264 265 265 265 263 262 261 260 259 258 258 259 260 261 261 262 263 263 264 264 264 264 264 263 262 262 261 261 261 262 264 267 269 271 273 274 276 278 280 282 283 284 285 285
235 237 239 242 246 250 255 260 266 272 275 277 278 277 275 273 270 268 268 268 269 270 270 270 270 271 273 274 276 275 270 269 270 270 269 265 264 266 269 269 270 270 269 270 270 271 271 268 266 263 262 260 260 259 260 260 261 262 262 263 263 263 263 263 262 261 260 259 258 258 258 259 261 263 265 268 271 273 276 278 280 281 283 283 284 283
236 240 244 250 256 261 265 266 269 273 277 279 281 280 279 277 275 274 273 272 271 270 270 270 270 271 271 271 271 270 267 267 267 268 266 262 261 263 265 267 269 270 271 271 270 270 271 271 270 269 266 263 261 260 260 261 261 262 263 263 263 263 263 262 262 261 260 258 257 257 257 258 259 261 263 265 268 271 274 276 278 280 281 282 282 281
241 248 254 261 266 270 273 273 272 272 274 275 276 275 275 275 275 275 275 274 273 271 270 270 270 270 271 270 268 266 265 265 265 266 265 262 261 262 264 266 267 268 270 270 270 269 268 270 272 272 270 267 264 263 263 263 264 264 264 265 264 264 263 262 262 261 260 259 258 258 258 258 259 261 262 264 267 269 272 274 276 277 279 280 280 279
247 254 260 265 268 270 271 272 271 270 270 270 270 270 270 270 271 272 273 273 273 273 271 270 270 270 271 271 270 268 266 265 265 266 265 263 262 262 264 265 266 267 268 270 270 270 270 271 273 273 272 270 267 266 266 266 266 266 266 265 264 264 263 263 262 261 260 260 259 259 259 260 260 261 263 264 266 268 270 271 272 274 276 277 277 276
244 250 256 261 264 265 266 267 266 266 267 267 267 268 268 268 270 271 273 274 275 275 274 273 272 271 271 271 272 271 270 269 268 268 267 265 264 264 264 265 266 268 268 270 270 271 272 273 274 275 275 274 273 271 269 268 267 267 266 266 264 264 263 262 262 262 261 261 261 260 260 260 261 262 262 264 265 266 267 268 269 269 271 272 273 273
239 243 248 253 257 260 263 265 266 267 268 268 270 271 273 274 275 276 277 278 279 278 278 276 275 273 272 271 271 271 271 272 272 271 271 268 267 266 266 266 267 268 269 270 271 272 273 274 275 276 278 279 279 277 275 272 270 269 268 266 266 264 263 263 263 263 262 262 261 261 260 260 261 261 262 262 263 263 264 264 265 266 266 267 269 270
237 241 245 250 255 259 263 267 269 272 275 275 276 277 279 279 280 281 282 283 283 281 279 277 275 274 273 272 271 270 270 271 272 273 273 272 270 269 267 267 268 269 270 270 271 273 274 275 277 278 279 280 282 282 280 278 275 272 270 269 268 266 265 264 263 263 262 262 261 261 261 261 261 261 261 260 260 260 260 261 261 262 263 263 265 266
238 241 246 251 255 261 265 269 273 275 277 277 277 279 280 282 283 284 285 285 284 282 279 277 275 274 274 273 272 271 270 271 273 274 274 274 274 272 270 269 270 270 270 270 271 273 275 276 278 279 280 281 281 282 282 281 279 277 274 272 270 268 266 265 264 263 263 262 262 261 261 261 260 260 260 259 258 258 258 258 258 259 260 260 260 261
238 241 246 251 256 261 265 269 272 274 274 274 275 278 279 280 282 283 283 283 281 280 277 275 274 273 273 273 273 273 273 273 273 274 274 275 275 274 273 272 271 272 272 272 272 273 275 276 278 280 281 281 281 281 282 282 283 282 278 275 271 268 266 265 264 264 263 262 262 261 260 260 259 259 258 257 256 256 255 255 255 255 256 256 256 257
238 241 246 252 256 260 264 266 267 269 271 273 275 277 277 277 278 279 279 279 278 276 275 273 272 271 272 272 273 273 274 274 274 274 274 274 274 274 274 273 272 273 273 274 274 274 275 276 278 279 280 281 282 282 282 284 285 285 282 278 272 268 265 264 264 263 263 261 260 259 258 258 257 256 255 254 253 253 252 252 251 251 250 249 250 251
240 243 248 252 256 258 259 260 263 267 270 271 272 273 272 272 273 274 275 276 275 274 272 270 270 270 270 271 272 272 273 273 273 274 273 273 274 274 274 274 274 274 274 275 275 276 276 277 278 279 280 281 282 283 284 287 288 287 283 280 275 269 264 262 262 261 261 259 258 257 256 255 255 253 252 251 250 249 248 247 246 246 245 245 244 245
243 246 249 251 253 255 256 259 263 266 269 269 268 268 269 269 270 271 272 272 272 272 271 270 269 268 269 270 271 271 271 271 272 271 272 272 273 274 274 274 275 275 276 276 277 277 277 278 279 280 281 282 283 285 287 289 288 286 284 281 277 272 266 262 260 259 258 257 257 256 255 254 253 251 249 247 246 245 244 244 243 242 242 242 242 242
244 245 247 249 251 254 256 259 262 264 265 266 266 267 268 270 271 271 271 271 271 271 271 270 269 268 269 270 271 271 270 270 270 270 270 271 272 273 274 275 276 277 277 277 277 278 279 280 280 281 281 282 284 286 288 289 287 284 282 279 278 276 273 266 261 258 256 256 256 255 254 253 251 250 248 246 244 243 242 241 241 241 241 241 241 241
242 244 246 249 251 254 255 257 258 260 262 263 264 266 268 271 271 271 270 270 270 271 272 272 271 271 271 271 270 270 270 270 270 269 270 271 272 273 275 276 277 279 279 279 278 278 280 280 281 281 282 284 285 287 288 289 286 281 277 275 274 273 271 266 261 256 255 254 254 254 254 253 252 250 248 246 244 243 241 240 240 239 240 240 240 239
241 244 247 249 251 252 254 254 255 257 259 261 263 266 270 272 272 271 270 271 272 273 274 275 275 275 274 272 269 268 267 268 269 270 270 271 272 273 275 276 278 280 281 281 281 280 280 279 279 280 283 284 285 287 289 288 284 278 274 272 271 271 269 267 263 258 253 251 251 252 254 254 253 251 249 247 244 243 241 239 238 238 238 238 239 238
243 246 248 249 250 252 253 253 254 256 259 262 265 268 271 273 273 273 272 273 274 276 276 277 278 278 278 275 272 268 265 265 266 268 270 271 272 273 274 276 278 280 282 282 283 283 282 281 281 281 282 283 284 285 287 286 282 277 272 270 269 270 271 270 267 262 257 252 250 251 254 255 255 253 250 247 245 243 241 239 238 237 237 237 237 237
246 247 249 250 251 252 253 254 255 258 261 264 266 269 272 274 275 274 274 273 274 275 277 277 278 279 279 277 274 271 267 264 263 265 268 269 271 272 274 275 277 279 281 283 283 284 284 284 284 283 283 282 282 282 282 281 278 276 273 271 270 270 270 270 268 265 261 258 254 254 255 256 256 255 253 250 247 244 243 241 240 238 237 237 237 237
248 249 250 252 253 255 256 257 258 261 263 265 267 268 271 271 271 271 272 272 273 274 276 278 278 279 279 278 276 273 270 267 264 264 266 268 270 271 272 274 276 278 279 281 282 283 284 284 284 284 283 283 282 281 278 276 275 274 273 272 271 270 269 268 266 266 265 263 261 259 259 258 258 258 256 254 250 247 245 244 243 241 239 238 238 237
250 251 252 253 255 257 259 261 262 264 266 268 270 270 269 267 266 265 267 268 270 272 274 275 276 276 276 276 275 274 272 269 266 265 265 266 269 271 272 273 274 276 277 278 280 281 282 283 283 283 281 281 280 280 278 275 274 273 273 272 271 270 269 267 266 267 268 268 267 266 264 263 263 262 261 259 255 250 247 245 245 244 243 242 240 238
251 252 253 254 256 258 260 262 264 266 269 271 273 272 269 265 263 262 262 264 266 269 271 272 272 272 271 271 272 272 271 270 268 267 266 266 268 269 271 272 273 274 275 276 277 277 278 280 281 280 279 277 277 277 277 276 274 274 273 272 272 270 269 268 267 267 268 269 270 270 269 268 267 266 264 262 259 255 249 246 244 245 246 245 242 240
250 251 252 254 255 257 259 261 263 266 268 270 270 268 266 263 262 261 260 262 263 265 267 268 269 268 267 268 269 269 270 269 269 269 269 268 268 268 269 270 272 272 274 274 275 275 276 277 277 276 276 275 275 273 273 272 273 273 273 273 272 271 269 268 267 267 267 268 269 269 269 269 268 267 265 264 263 259 252 245 240 240 242 244 243 241
Height
1518 1518 1518 1518 1518 1518 1518 1518 1518 1517 1517 1517 1516 1516 1515 1515 1515 1514 1514 1514 1513 1513 1512 1512 1512 1511 1511 1511 1510 1510 1510 1509 1509 1509 1509 1509 1509 1509 1510 1510 1510 1510 1510 1510 1510 1510 1510 1510 1510 1510 1510 1510 1511 1511 1511 1511 1511 1511 1511 1511 1511 1512 1513 1512 1511 1511 1511 1511 1511 1510 1510 1510 1510 1510 1509 1509 1509 1510 1510 1511 1512 1512 1512 1512 1512 1512
1516 1516 1516 1516 1516 1516 1516 1515 1515 1515 1515 1515 1514 1514 1514 1513 1513 1512 1512 1511 1511 1510 1510 1510 1510 1509 1509 1509 1508 1508 1508 1507 1507 1507 1507 1507 1508 1508 1508 1509 1509 1509 1509 1509 1509 1509 1509 1509 1509 1510 1510 1510 1510 1510 1510 1510 1511 1511 1511 1511 1511 1512 1513 1512 1511 1511 1511 1511 1511 1511 1511 1511 1510 1510 1510 1510 1510 1510 1510 1511 1512 1512 1512 1512 1512 1512
1515 1515 1515 1515 1515 1514 1514 1514 1513 1513 1513 1513 1512 1512 1511 1511 1510 1510 1510 1509 1509 1508 1508 1508 1508 1507 1507 1507 1506 1506 1506 1506 1505 1505 1505 1505 1506 1507 1507 1508 1508 1508 1508 1508 1508 1508 1508 1508 1509 1509 1509 1509 1509 1510 1510 1510 1510 1510 1510 1510 1510 1511 1511 1511 1510 1510 1510 1510 1510 1510 1510 1511 1511 1511 1511 1511 1511 1511 1511 1512 1512 1511 1511 1511 1511 1511
1512 1513 1513 1513 1513 1513 1512 1512 1512 1511 1511 1511 1510 1510 1510 1509 1509 1508 1508 1507 1507 1506 1506 1506 1506 1505 1505 1505 1505 1505 1505 1504 1504 1504 1504 1504 1505 1505 1505 1506 1506 1507 1507 1507 1507 1507 1507 1508 1508 1508 1508 1508 1509 1509 1509 1509 1510 1510 1510 1510 1510 1510 1510 1510 1510 1510 1510 1510 1510 1510 1510 1510 1510 1510 1510 1511 1511 1511 1511 1511 1511 1511 1510 1510 1510 1510
1510 1510 1510 1511 1511 1510 1510 1510 1510 1510 1509 1509 1509 1508 1508 1507 1507 1506 1506 1505 1505 1505 1505 1504 1504 1504 1504 1503 1503 1503 1503 1503 1503 1503 1503 1503 1504 1504 1505 1505 1506 1506 1507 1507 1507 1507 1507 1507 1507 1507 1507 1507 1508 1508 1508 1508 1509 1509 1509 1509 1509 1509 1509 1509 1509 1510 1510 1510 1510 1510 1510 1509 1510 1510 1510 1510 1510 1510 1510 1510 1510 1510 1510 1510 1510 1510
1508 1508 1509 1509 1509 1509 1509 1508 1508 1508 1507 1507 1507 1506 1506 1505 1505 1505 1504 1504 1504 1503 1503 1503 1502 1502 1502 1502 1502 1501 1501 1501 1501 1501 1502 1502 1503 1503 1504 1505 1505 1505 1506 1506 1506 1506 1506 1506 1506 1506 1506 1507 1507 1507 1507 1508 1508 1508 1508 1508 1508 1509 1509 1509 1509 1509 1509 1509 1509 1509 1509 1509 1509 1509 1509 1509 1509 1509 1509 1510 1510 1510 1510 1510 1509 1509
1506 1507 1507 1507 1507 1507 1507 1506 1506 1506 1506 1505 1505 1505 1504 1504 1503 1503 1503 1502 1502 1502 1502 1501 1501 1500 1500 1500 1500 1500 1500 1500 1500 1500 1501 1501 1502 1502 1503 1504 1505 1505 1505 1505 1505 1505 1505 1505 1505 1506 1506 1506 1506 1506 1507 1507 1507 1507 1508 1508 1508 1508 1508 1508 1508 1508 1508 1508 1508 1508 1509 1508 1508 1508 1508 1508 1508 1508 1508 1508 1509 1509 1509 1509 1509 1509
1505 1505 1505 1505 1505 1505 1505 1505 1504 1504 1504 1504 1504 1503 1502 1502 1502 1501 1501 1501 1501 1501 1500 1500 1499 1499 1499 1499 1499 1499 1499 1499 1499 1499 1500 1500 1500 1501 1502 1503 1504 1504 1504 1505 1505 1505 1505 1505 1505 1505 1505 1505 1505 1506 1506 1506 1506 1507 1507 1507 1507 1507 1507 1507 1507 1507 1507 1507 1507 1507 1507 1507 1507 1507 1507 1508 1508 1507 1507 1507 1507 1507 1508 1508 1508 1508
1503 1503 1504 1504 1503 1503 1503 1503 1503 1502 1502 1502 1502 1501 1501 1501 1500 1500 1500 1500 1500 1500 1499 1499 1498 1498 1498 1498 1497 1497 1497 1497 1498 1498 1499 1499 1500 1500 1502 1502 1503 1503 1504 1504 1504 1504 1504 1504 1505 1505 1505 1505 1505 1505 1505 1505 1506 1506 1506 1506 1506 1506 1506 1506 1506 1506 1506 1506 1506 1506 1506 1506 1506 1506 1506 1506 1506 1506 1506 1506 1506 1507 1507 1507 1507 1507
1501 1501 1501 1501 1501 1502 1502 1501 1501 1501 1501 1500 1500 1500 1500 1500 1500 1499 1499 1499 1499 1499 1498 1498 1498 1497 1497 1496 1496 1496 1496 1496 1497 1497 1498 1498 1499 1500 1501 1501 1502 1502 1503 1503 1503 1503 1504 1504 1504 1504 1504 1504 1504 1505 1505 1505 1505 1505 1505 1505 1505 1505 1505 1505 1505 1505 1505 1505 1505 1505 1505 1505 1505 1505 1505 1505 1505 1505 1505 1505 1505 1506 1506 1506 1506 1506
1499 1500 1500 1500 1500 1500 1500 1500 1500 1500 1499 1499 1499 1499 1498 1498 1498 1498 1498 1498 1498 1498 1497 1497 1497 1497 1496 1496 1496 1496 1496 1496 1496 1497 1497 1498 1498 1499 1500 1501 1501 1501 1502 1502 1502 1503 1503 1503 1503 1503 1503 1503 1504 1504 1504 1505 1505 1505 1505 1505 1505 1505 1505 1505 1505 1505 1505 1505 1505 1504 1504 1504 1504 1504 1504 1505 1505 1505 1505 1505 1505 1505 1505 1505 1505 1505
1498 1498 1498 1498 1498 1498 1498 1498 1498 1498 1498 1498 1498 1497 1497 1496 1496 1496 1497 1496 1497 1497 1497 1497 1496 1496 1495 1495 1495 1495 1495 1495 1496 1496 1497 1497 1498 1499 1499 1500 1500 1501 1501 1501 1502 1502 1502 1502 1502 1502 1502 1503 1503 1503 1504 1504 1504 1504 1504 1504 1504 1504 1503 1503 1503 1503 1503 1504 1504 1504 1503 1503 1503 1504 1504 1504 1504 1504 1504 1504 1504 1504 1504 1504 1504 1504
1496 1496 1496 1496 1496 1496 1496 1496 1496 1496 1496 1497 1497 1496 1496 1495 1495 1495 1495 1495 1495 1496 1496 1496 1496 1495 1495 1495 1495 1495 1495 1495 1495 1495 1496 1496 1497 1498 1498 1499 1499 1500 1500 1500 1500 1501 1501 1502 1502 1502 1502 1502 1502 1503 1503 1503 1503 1503 1503 1503 1503 1503 1502 1502 1502 1502 1502 1503 1503 1503 1503 1503 1503 1503 1503 1503 1503 1503 1503 1503 1503 1503 1503 1503 1503 1503
1495 1495 1494 1494 1494 1494 1495 1495 1495 1495 1495 1495 1495 1495 1495 1494 1494 1494 1494 1494 1495 1495 1495 1495 1495 1495 1495 1495 1494 1494 1495 1495 1495 1495 1495 1496 1496 1497 1497 1498 1498 1499 1499 1499 1500 1500 1500 1501 1501 1501 1501 1501 1501 1502 1502 1502 1502 1502 1502 1502 1502 1502 1502 1501 1501 1501 1501 1502 1502 1502 1502 1502 1502 1502 1502 1502 1502 1502 1502 1502 1502 1502 1502 1502 1502 1502
1493 1493 1492 1492 1493 1493 1493 1494 1494 1494 1494 1494 1494 1494 1494 1493 1493 1493 1493 1493 1494 1494 1494 1494 1494 1494 1494 1494 1494 1494 1494 1494 1494 1494 1495 1495 1495 1496 1496 1497 1497 1498 1498 1499 1499 1499 1500 1500 1500 1500 1500 1500 1501 1501 1501 1501 1501 1501 1501 1501 1501 1501 1501 1501 1501 1501 1501 1501 1501 1501 1501 1501 1501 1501 1501 1501 1501 1501 1501 1501 1501 1501 1501 1501 1501 1501
1491 1491 1491 1491 1491 1492 1492 1493 1493 1493 1493 1493 1493 1493 1493 1492 1492 1492 1492 1493 1493 1493 1493 1494 1494 1493 1493 1493 1493 1493 1493 1493 1493 1494 1494 1495 1495 1495 1496 1496 1496 1497 1497 1498 1498 1498 1499 1499 1499 1500 1500 1500 1500 1500 1500 1500 1500 1500 1500 1500 1500 1500 1500 1500 1500 1500 1500 1500 1500 1500 1500 1500 1500 1500 1500 1500 1500 1500 1500 1500 1500 1500 1500 1500 1500 1500
1489 1489 1489 1490 1490 1491 1491 1491 1492 1492 1492 1492 1492 1492 1492 1492 1492 1492 1492 1492 1492 1493 1493 1493 1493 1492 1492 1492 1492 1492 1492 1492 1493 1493 1493 1494 1494 1495 1495 1495 1496 1496 1496 1497 1497 1497 1498 1498 1498 1499 1499 1499 1499 1499 1499 1499 1499 1499 1499 1499 1499 1499 1499 1499 1499 1499 1499 1499 1499 1499 1499 1499 1499 1499 1499 1499 1499 1499 1499 1499 1499 1499 1499 1499 1499 1499
1488 1488 1489 1489 1490 1490 1490 1490 1490 1491 1491 1491 1491 1491 1491 1491 1491 1491 1491 1492 1492 1492 1492 1492 1492 1492 1492 1491 1491 1491 1491 1492 1492 1492 1492 1493 1493 1494 1494 1495 1495 1495 1495 1496 1496 1497 1497 1497 1497 1498 1498 1498 1498 1498 1498 1498 1498 1498 1498 1498 1498 1498 1498 1498 1498 1498 1497 1497 1497 1497 1497 1497 1497 1497 1497 1498 1498 1498 1498 1498 1498 1498 1498 1498 1498 1498
1487 1487 1488 1488 1489 1489 1490 1490 1490 1490 1490 1490 1490 1490 1490 1491 1491 1491 1491 1491 1491 1491 1491 1491 1491 1491 1491 1491 1490 1490 1491 1491 1491 1491 1491 1492 1492 1493 1493 1494 1494 1494 1495 1495 1495 1496 1496 1496 1496 1497 1497 1497 1497 1497 1497 1497 1497 1497 1497 1497 1497 1497 1497 1497 1497 1497 1496 1496 1496 1496 1496 1496 1496 1496 1496 1496 1496 1496 1496 1496 1496 1497 1496 1496 1496 1496
1486 1487 1487 1488 1488 1488 1489 1489 1489 1489 1490 1490 1490 1490 1490 1490 1490 1490 1490 1490 1490 1490 1490 1490 1490 1490 1490 1490 1490 1490 1490 1490 1490 1490 1491 1491 1491 1492 1492 1493 1493 1493 1494 1494 1494 1495 1495 1495 1495 1495 1496 1496 1496 1496 1496 1496 1496 1496 1496 1496 1496 1496 1496 1496 1496 1496 1495 1495 1495 1495 1495 1495 1495 1495 1495 1495 1495 1495 1495 1495 1495 1495 1495 1495 1495 1495
1485 1486 1486 1486 1487 1487 1488 1488 1488 1488 1488 1489 1489 1489 1489 1489 1490 1490 1490 1490 1490 1490 1490 1490 1490 1490 1490 1489 1489 1489 1489 1490 1490 1490 1490 1490 1491 1491 1491 1492 1492 1492 1493 1493 1494 1494 1494 1494 1495 1495 1495 1495 1495 1495 1495 1495 1495 1495 1495 1495 1495 1495 1495 1495 1495 1495 1495 1494 1494 1494 1494 1494 1494 1494 1494 1494 1494 1494 1494 1494 1494 1494 1494 1494 1494 1494
1485 1485 1485 1486 1486 1486 1487 1487 1487 1487 1488 1488 1488 1488 1488 1489 1489 1489 1489 1489 1489 1489 1489 1489 1489 1489 1489 1489 1488 1489 1489 1489 1489 1490 1490 1490 1490 1490 1491 1491 1491 1491 1492 1492 1493 1493 1493 1493 1493 1493 1494 1494 1494 1494 1493 1493 1493 1493 1493 1493 1493 1493 1493 1493 1493 1493 1493 1493 1493 1493 1493 1493 1493 1493 1493 1493 1493 1492 1492 1492 1492 1492 1492 1492 1492 1492
1484 1484 1485 1485 1485 1485 1486 1486 1486 1486 1487 1487 1487 1487 1487 1488 1488 1488 1488 1488 1488 1488 1488 1488 1488 1488 1488 1488 1488 1488 1488 1488 1489 1489 1489 1489 1490 1490 1490 1490 1490 1490 1491 1491 1491 1492 1492 1492 1492 1492 1492 1492 1492 1492 1492 1492 1492 1492 1492 1492 1492 1492 1492 1491 1492 1492 1492 1492 1492 1492 1492 1491 1491 1491 1491 1491 1491 1491 1491 1491 1491 1491 1491 1490 1490 1490
1483 1483 1484 1484 1485 1485 1485 1485 1485 1485 1486 1486 1486 1486 1486 1487 1487 1487 1487 1487 1487 1487 1487 1487 1487 1487 1487 1487 1487 1487 1487 1488 1488 1488 1488 1489 1489 1489 1490 1490 1490 1490 1490 1490 1490 1491 1491 1491 1491 1491 1491 1491 1491 1491 1491 1491 1491 1491 1491 1491 1491 1491 1491 1490 1490 1490 1490 1490 1490 1490 1490 1490 1490 1490 1490 1490 1490 1490 1490 1490 1490 1489 1489 1489 1489 1489
1482 1483 1483 1484 1484 1484 1484 1484 1485 1485 1485 1485 1485 1485 1486 1486 1486 1486 1486 1486 1486 1486 1486 1486 1486 1486 1486 1486 1486 1486 1487 1487 1487 1488 1488 1488 1488 1488 1489 1489 1489 1489 1489 1489 1489 1490 1490 1490 1490 1490 1490 1490 1490 1490 1490 1490 1490 1490 1490 1490 1490 1490 1490 1490 1489 1489 1489 1489 1489 1489 1489 1489 1489 1489 1489 1488 1488 1488 1488 1488 1488 1488 1488 1488 1487 1487
1482 1482 1482 1483 1483 1483 1483 1484 1484 1484 1484 1484 1484 1485 1485 1485 1485 1485 1485 1485 1485 1485 1485 1485 1485 1485 1485 1485 1485 1486 1486 1486 1486 1487 1487 1487 1487 1487 1487 1488 1488 1488 1488 1488 1488 1488 1488 1488 1489 1489 1489 1489 1489 1489 1489 1489 1488 1488 1488 1488 1489 1489 1489 1489 1488 1488 1488 1488 1487 1487 1487 1487 1487 1487 1487 1487 1487 1487 1487 1487 1487 1486 1486 1486 1486 1485
1481 1481 1481 1482 1482 1482 1482 1483 1483 1483 1483 1483 1484 1484 1484 1484 1484 1485 1485 1485 1485 1485 1485 1485 1485 1485 1485 1485 1485 1485 1485 1485 1486 1486 1486 1486 1486 1486 1486 1487 1487 1487 1487 1487 1487 1487 1487 1487 1487 1487 1487 1487 1487 1487 1487 1487 1487 1487 1487 1487 1487 1487 1487 1487 1487 1487 1487 1487 1486 1486 1486 1486 1485 1485 1485 1485 1485 1485 1485 1485 1485 1485 1485 1484 1484 1484
1480 1480 1480 1481 1481 1481 1481 1482 1482 1482 1482 1483 1483 1483 1483 1483 1484 1484 1484 1484 1484 1484 1484 1484 1484 1484 1484 1484 1484 1484 1485 1485 1485 1485 1485 1485 1485 1485 1485 1485 1486 1486 1486 1485 1485 1485 1485 1485 1486 1486 1486 1486 1486 1486 1486 1486 1486 1486 1486 1486 1486 1486 1486 1486 1486 1486 1486 1485 1485 1485 1485 1485 1484 1484 1484 1484 1484 1484 1484 1484 1484 1483 1483 1483 1483 1482
1479 1480 1480 1480 1480 1480 1481 1481 1481 1481 1482 1482 1482 1482 1482 1483 1483 1483 1483 1483 1483 1483 1483 1483 1483 1483 1483 1483 1483 1484 1484 1484 1484 1484 1485 1485 1484 1484 1484 1484 1484 1485 1485 1484 1484 1484 1484 1484 1484 1485 1485 1485 1485 1484 1484 1484 1484 1484 1484 1484 1484 1484 1484 1484 1484 1484 1484 1484 1484 1484 1484 1483 1483 1483 1483 1482 1482 1482 1482 1482 1482 1482 1481 1481 1481 1481
1478 1479 1479 1479 1480 1480 1480 1480 1480 1480 1481 1481 1481 1481 1481 1482 1482 1482 1482 1482 1482 1482 1482 1482 1482 1482 1482 1482 1483 1483 1483 1483 1483 1483 1484 1484 1484 1483 1483 1483 1483 1483 1483 1483 1483 1483 1483 1483 1483 1483 1483 1483 1483 1483 1483 1483 1483 1482 1482 1482 1482 1482 1482 1482 1482 1482 1482 1482 1482 1482 1482 1482 1482 1481 1481 1481 1481 1481 1481 1480 1480 1480 1480 1480 1480 1480
1477 1478 1478 1478 1479 1479 1479 1479 1480 1480 1480 1480 1480 1480 1481 1481 1481 1481 1481 1481 1481 1481 1481 1481 1481 1481 1481 1481 1482 1482 1482 1482 1482 1482 1483 1483 1483 1482 1482 1482 1482 1482 1482 1482 1482 1482 1481 1481 1481 1482 1482 1482 1482 1481 1481 1481 1481 1481 1481 1481 1481 1480 1480 1480 1480 1480 1480 1480 1480 1480 1480 1480 1480 1480 1480 1480 1480 1479 1479 1479 1479 1479 1478 1478 1478 1478
1477 1477 1477 1477 1478 1478 1478 1478 1479 1479 1479 1479 1480 1480 1480 1480 1480 1480 1480 1480 1480 1480 1480 1480 1480 1480 1480 1480 1481 1481 1481 1481 1481 1481 1481 1482 1481 1481 1481 1481 1481 1481 1481 1481 1481 1481 1480 1480 1480 1480 1480 1480 1480 1480 1480 1480 1480 1480 1479 1479 1479 1479 1479 1479 1478 1478 1478 1478 1478 1478 1478 1478 1478 1478 1478 1478 1478 1478 1478 1478 1477 1477 1477 1476 1476 1476
1476 1476 1476 1477 1477 1477 1477 1478 1478 1478 1478 1479 1479 1479 1479 1479 1479 1479 1479 1479 1479 1479 1479 1479 1479 1479 1479 1479 1480 1480 1480 1480 1480 1480 1480 1480 1480 1480 1480 1480 1480 1480 1479 1479 1479 1479 1479 1478 1478 1478 1479 1479 1479 1479 1479 1478 1478 1478 1478 1478 1477 1477 1477 1477 1477 1476 1476 1476 1476 1476 1477 1477 1477 1476 1476 1476 1476 1476 1476 1476 1476 1476 1475 1475 1475 1475
1475 1475 1475 1476 1476 1476 1477 1477 1477 1477 1478 1478 1478 1478 1478 1478 1478 1478 1478 1478 1478 1478 1478 1478 1478 1478 1478 1478 1478 1479 1479 1479 1479 1479 1479 1479 1479 1479 1479 1479 1478 1478 1478 1478 1478 1477 1477 1477 1476 1476 1476 1477 1477 1477 1477 1477 1477 1476 1476 1476 1476 1475 1475 1475 1475 1475 1475 1475 1475 1475 1475 1475 1475 1475 1475 1475 1475 1475 1474 1474 1474 1474 1474 1474 1473 1473
1474 1474 1475 1475 1475 1475 1476 1476 1476 1476 1477 1477 1477 1477 1477 1477 1477 1477 1477 1477 1477 1477 1477 1477 1477 1477 1477 1477 1477 1477 1477 1477 1477 1478 1478 1478 1478 1477 1477 1477 1477 1477 1477 1476 1476 1476 1475 1475 1475 1475 1475 1475 1475 1475 1476 1475 1475 1475 1475 1475 1474 1474 1474 1473 1473 1473 1473 1473 1473 1473 1473 1473 1473 1473 1473 1473 1473 1473 1473 1473 1473 1473 1473 1472 1472 1472
1473 1473 1474 1474 1474 1475 1475 1475 1475 1475 1476 1476 1476 1476 1476 1476 1476 1476 1476 1476 1476 1476 1476 1476 1476 1476 1476 1476 1476 1476 1476 1476 1476 1476 1476 1476 1476 1476 1476 1476 1475 1475 1475 1475 1475 1474 1474 1474 1473 1473 1473 1473 1473 1473 1474 1474 1474 1473 1473 1473 1472 1472 1472 1471 1471 1471 1471 1471 1471 1471 1471 1471 1471 1471 1471 1471 1471 1471 1471 1471 1471 1471 1471 1471 1471 1471
1472 1472 1473 1473 1473 1474 1474 1474 1474 1474 1475 1475 1475 1475 1475 1475 1475 1475 1475 1475 1475 1475 1475 1475 1475 1475 1475 1475 1475 1475 1475 1475 1475 1475 1475 1475 1475 1475 1475 1475 1474 1474 1474 1474 1473 1473 1473 1472 1472 1472 1472 1472 1471 1471 1471 1471 1471 1471 1471 1471 1471 1470 1470 1470 1470 1469 1469 1469 1469 1469 1469 1469 1469 1469 1469 1469 1469 1469 1469 1469 1469 1469 1470 1470 1470 1470
1471 1471 1472 1472 1472 1473 1473 1473 1473 1473 1474 1474 1474 1474 1474 1474 1474 1474 1474 1474 1474 1474 1474 1474 1474 1474 1474 1474 1474 1474 1474 1474 1474 1474 1474 1474 1474 1474 1474 1473 1473 1473 1473 1472 1472 1472 1471 1471 1470 1470 1470 1470 1470 1470 1470 1470 1470 1470 1470 1469 1469 1469 1468 1468 1468 1467 1467 1467 1467 1467 1467 1467 1467 1467 1467 1467 1467 1467 1467 1467 1468 1468 1468 1468 1468 1468
1470 1470 1471 1471 1471 1472 1472 1472 1472 1472 1472 1473 1473 1473 1473 1473 1473 1473 1473 1473 1473 1473 1473 1473 1473 1473 1473 1473 1473 1473 1473 1473 1473 1473 1473 1472 1472 1472 1472 1472 1472 1471 1471 1471 1471 1471 1470 1470 1470 1469 1469 1469 1469 1469 1468 1468 1468 1468 1468 1468 1467 1467 1467 1466 1466 1465 1465 1465 1465 1465 1465 1465 1465 1465 1465 1465 1465 1465 1465 1466 1466 1466 1466 1467 1467 1467
1469 1470 1470 1470 1470 1471 1471 1471 1471 1471 1471 1472 1472 1472 1472 1472 1472 1472 1472 1472 1472 1472 1472 1472 1472 1472 1472 1472 1472 1472 1472 1472 1472 1471 1471 1471 1471 1471 1471 1471 1470 1470 1470 1470 1470 1470 1469 1469 1469 1468 1468 1467 1467 1467 1467 1467 1467 1467 1466 1466 1466 1466 1465 1465 1464 1464 1464 1464 1464 1464 1464 1464 1463 1463 1463 1463 1464 1464 1464 1464 1465 1465 1465 1465 1465 1465
1468 1469 1469 1469 1469 1470 1470 1470 1470 1470 1470 1470 1471 1471 1471 1471 1471 1471 1471 1471 1471 1471 1471 1471 1471 1471 1471 1471 1471 1470 1470 1470 1470 1470 1470 1470 1470 1470 1470 1470 1469 1469 1469 1469 1469 1468 1468 1468 1467 1467 1467 1466 1466 1466 1466 1466 1466 1465 1465 1465 1464 1464 1464 1464 1463 1463 1463 1462 1462 1462 1462 1462 1462 1462 1462 1462 1462 1462 1462 1463 1463 1463 1463 1464 1464 1464
1467 1467 1468 1468 1468 1468 1469 1469 1469 1469 1469 1470 1470 1470 1470 1470 1470 1470 1470 1470 1470 1470 1470 1470 1470 1470 1470 1470 1470 1469 1469 1469 1469 1469 1469 1469 1469 1469 1469 1468 1468 1468 1468 1468 1467 1467 1467 1467 1466 1466 1466 1465 1465 1465 1465 1465 1465 1464 1464 1463 1463 1462 1462 1462 1462 1462 1461 1461 1461 1461 1461 1460 1460 1460 1460 1460 1460 1461 1461 1461 1462 1462 1462 1462 1463 1463
1465 1466 1466 1466 1467 1467 1468 1468 1468 1468 1468 1469 1469 1469 1469 1469 1469 1469 1469 1469 1469 1469 1469 1469 1469 1469 1469 1469 1468 1468 1468 1468 1468 1468 1468 1468 1468 1467 1467 1467 1467 1467 1467 1466 1466 1466 1466 1465 1465 1465 1465 1464 1464 1464 1464 1464 1464 1463 1463 1462 1461 1461 1461 1461 1461 1460 1460 1460 1460 1460 1459 1459 1459 1459 1459 1459 1460 1460 1460 1460 1460 1461 1461 1461 1461 1462
1464 1464 1465 1465 1465 1466 1466 1467 1467 1467 1467 1467 1468 1468 1468 1468 1468 1468 1468 1468 1468 1467 1467 1467 1468 1468 1468 1467 1467 1467 1467 1467 1467 1467 1467 1466 1466 1466 1466 1466 1466 1466 1465 1465 1465 1465 1465 1465 1464 1464 1464 1463 1463 1463 1463 1463 1463 1462 1462 1461 1460 1460 1460 1460 1460 1460 1459 1459 1458 1458 1458 1458 1458 1458 1458 1458 1459 1459 1459 1459 1459 1460 1460 1460 1460 1461
1463 1463 1463 1464 1464 1465 1465 1466 1466 1466 1466 1466 1466 1467 1467 1467 1467 1467 1467 1466 1466 1466 1466 1466 1466 1466 1466 1466 1466 1466 1466 1465 1465 1465 1465 1465 1465 1465 1465 1465 1465 1465 1465 1464 1464 1464 1464 1464 1463 1463 1463 1463 1462 1462 1462 1462 1461 1461 1460 1460 1460 1459 1459 1459 1459 1459 1458 1458 1457 1457 1457 1456 1456 1457 1457 1457 1457 1458 1458 1458 1458 1459 1459 1459 1459 1460
1461 1462 1462 1463 1463 1464 1464 1465 1465 1465 1465 1465 1465 1465 1465 1465 1465 1465 1465 1465 1465 1465 1465 1465 1465 1465 1465 1465 1465 1465 1465 1465 1464 1464 1464 1464 1464 1464 1464 1464 1464 1464 1464 1463 1463 1463 1463 1463 1463 1462 1462 1462 1462 1461 1461 1461 1460 1460 1459 1459 1459 1458 1458 1458 1458 1457 1457 1457 1456 1456 1456 1455 1455 1455 1456 1456 1456 1456 1457 1457 1457 1457 1458 1458 1458 1459
1460 1460 1461 1461 1462 1462 1463 1463 1463 1464 1464 1464 1464 1464 1464 1464 1464 1464 1464 1464 1464 1464 1464 1464 1464 1464 1464 1464 1464 1464 1464 1464 1464 1463 1463 1463 1463 1463 1463 1463 1463 1463 1463 1462 1462 1462 1462 1462 1462 1461 1461 1461 1461 1460 1460 1460 1459 1459 1458 1458 1458 1457 1457 1457 1457 1456 1456 1455 1455 1455 1455 1455 1455 1455 1455 1455 1455 1455 1456 1456 1456 1456 1457 1457 1457 1458
1459 1459 1460 1460 1461 1461 1461 1462 1462 1462 1463 1463 1463 1463 1463 1463 1463 1463 1463 1463 1463 1463 1463 1463 1463 1463 1463 1463 1463 1463 1463 1463 1463 1462 1462 1462 1462 1462 1462 1462 1462 1462 1461 1461 1461 1461 1461 1461 1461 1460 1460 1460 1460 1460 1459 1459 1458 1458 1457 1457 1457 1456 1456 1456 1455 1455 1455 1455 1455 1455 1454 1454 1454 1454 1454 1454 1454 1455 1455 1455 1455 1455 1456 1456 1456 1457
1458 1458 1459 1459 1459 1460 1460 1460 1460 1461 1461 1461 1461 1461 1462 1462 1462 1462 1462 1462 1461 1461 1461 1461 1461 1461 1461 1461 1461 1461 1461 1461 1461 1461 1461 1461 1461 1461 1461 1461 1461 1460 1460 1460 1460 1460 1460 1460 1460 1460 1459 1459 1459 1458 1458 1458 1457 1457 1456 1456 1456 1455 1455 1455 1455 1455 1454 1454 1454 1454 1454 1453 1453 1453 1453 1453 1453 1454 1454 1454 1454 1455 1455 1455 1455 1455
1456 1457 1457 1458 1458 1458 1459 1459 1459 1460 1460 1460 1460 1460 1460 1460 1460 1460 1460 1460 1460 1460 1460 1460 1460 1460 1460 1460 1460 1460 1460 1460 1460 1460 1460 1460 1460 1460 1460 1460 1460 1460 1459 1459 1459 1459 1459 1459 1459 1459 1458 1458 1458 1457 1457 1457 1456 1456 1455 1455 1455 1455 1455 1454 1454 1454 1454 1453 1453 1453 1453 1453 1452 1452 1452 1452 1452 1452 1453 1453 1454 1454 1454 1454 1454 1454
1455 1455 1456 1456 1456 1457 1457 1458 1458 1458 1459 1459 1459 1459 1459 1459 1459 1459 1460 1460 1459 1459 1459 1459 1459 1459 1459 1459 1459 1459 1459 1459 1459 1459 1459 1459 1459 1459 1459 1459 1459 1459 1458 1458 1458 1458 1458 1458 1458 1457 1457 1457 1457 1457 1456 1456 1455 1455 1455 1454 1454 1454 1454 1454 1453 1453 1453 1452 1452 1452 1452 1452 1451 1451 1451 1451 1451 1451 1452 1452 1453 1453 1452 1452 1452 1452